• In Hungary
  • List of Countries
  • For 7 days
  • Water Temperature
  • Satellite Maps
  • Weather Map
  • News
  • Weather Widgets
  • user-avatar
    Login

    Hourly Weather Buenos Aires

    Today, 25 November, Saturday

    Time Temperature Precipitation Wind Pressure Humidity
    00:00 +14°C° 0 mm 2 mps 763 mmHg 60%
    01:00 +14°C° 0 mm 2 mps 763 mmHg 62%
    02:00 +14°C° 0 mm 2 mps 763 mmHg 64%
    03:00 +13°C° 0 mm 2 mps 763 mmHg 65%
    04:00 +12°C° 0 mm 3 mps 763 mmHg 66%
    05:00 +12°C° 0 mm 3 mps 763 mmHg 67%
    06:00 +14°C° 0 mm 3 mps 763 mmHg 60%
    07:00 +17°C° 0 mm 2 mps 763 mmHg 52%
    08:00 +19°C° 0 mm 2 mps 763 mmHg 45%
    09:00 +21°C° 0 mm 2 mps 763 mmHg 39%
    10:00 +24°C° 0 mm 2 mps 763 mmHg 33%
    11:00 +26°C° 0 mm 1 mps 763 mmHg 28%
    12:00 +27°C° 0 mm 1 mps 762 mmHg 26%
    13:00 +27°C° 0 mm 2 mps 762 mmHg 25%
    14:00 +28°C° 0 mm 2 mps 762 mmHg 23%
    15:00 +27°C° 0 mm 2 mps 761 mmHg 24%
    16:00 +27°C° 0 mm 2 mps 761 mmHg 26%
    17:00 +26°C° 0 mm 3 mps 760 mmHg 27%
    18:00 +24°C° 0 mm 3 mps 761 mmHg 33%
    19:00 +21°C° 0 mm 3 mps 761 mmHg 39%
    20:00 +19°C° 0 mm 3 mps 761 mmHg 45%
    21:00 +19°C° 0 mm 3 mps 761 mmHg 51%
    22:00 +18°C° 0 mm 3 mps 761 mmHg 57%
    23:00 +18°C° 0 mm 3 mps 761 mmHg 63%

    Tomorrow, 26 November, Sunday

    Time Temperature Precipitation Wind Pressure Humidity
    00:00 +17°C° 0 mm 3 mps 761 mmHg 65%
    01:00 +17°C° 0 mm 3 mps 760 mmHg 68%
    02:00 +17°C° 0 mm 3 mps 760 mmHg 71%
    03:00 +16°C° 0 mm 3 mps 760 mmHg 72%
    04:00 +16°C° 0 mm 3 mps 760 mmHg 73%
    05:00 +16°C° 0 mm 3 mps 760 mmHg 74%
    06:00 +18°C° 0 mm 3 mps 760 mmHg 68%
    07:00 +20°C° 0 mm 3 mps 760 mmHg 62%
    08:00 +22°C° 0 mm 4 mps 760 mmHg 55%
    09:00 +25°C° 0 mm 3 mps 759 mmHg 48%
    10:00 +26°C° 0 mm 3 mps 759 mmHg 41%
    11:00 +28°C° 0 mm 3 mps 758 mmHg 34%
    12:00 +29°C° 0 mm 3 mps 757 mmHg 33%
    13:00 +29°C° 0 mm 3 mps 757 mmHg 31%
    14:00 +30°C° 0 mm 3 mps 756 mmHg 29%
    15:00 +29°C° 0 mm 3 mps 755 mmHg 31%
    16:00 +29°C° 0 mm 3 mps 755 mmHg 33%
    17:00 +29°C° 0 mm 3 mps 755 mmHg 36%
    18:00 +27°C° 0 mm 3 mps 755 mmHg 43%
    19:00 +25°C° 0 mm 4 mps 755 mmHg 50%
    20:00 +22°C° 0 mm 4 mps 755 mmHg 58%
    21:00 +22°C° 0 mm 4 mps 755 mmHg 60%
    22:00 +21°C° 0 mm 4 mps 755 mmHg 62%
    23:00 +21°C° 0 mm 5 mps 755 mmHg 64%

    Day after tomorrow, 27 November, Monday

    Time Temperature Precipitation Wind Pressure Humidity
    00:00 +20°C° 0 mm 4 mps 755 mmHg 64%
    01:00 +20°C° 0 mm 4 mps 755 mmHg 65%
    02:00 +20°C° 0 mm 4 mps 755 mmHg 65%
    03:00 +19°C° 0 mm 4 mps 755 mmHg 68%
    04:00 +19°C° 0 mm 4 mps 756 mmHg 70%
    05:00 +19°C° 0 mm 4 mps 757 mmHg 73%
    06:00 +19°C° 0 mm 5 mps 758 mmHg 69%
    07:00 +20°C° 0 mm 6 mps 759 mmHg 64%
    08:00 +20°C° 0 mm 7 mps 760 mmHg 60%
    09:00 +21°C° 0 mm 8 mps 760 mmHg 54%
    10:00 +22°C° 0 mm 8 mps 761 mmHg 48%
    11:00 +23°C° 0 mm 8 mps 762 mmHg 41%
    12:00 +23°C° 0 mm 7 mps 762 mmHg 39%
    13:00 +24°C° 0 mm 7 mps 762 mmHg 36%
    14:00 +24°C° 0 mm 7 mps 762 mmHg 33%
    15:00 +23°C° 0 mm 7 mps 763 mmHg 34%
    16:00 +22°C° 0 mm 7 mps 763 mmHg 35%
    17:00 +22°C° 0 mm 7 mps 763 mmHg 37%
    18:00 +20°C° 0 mm 6 mps 764 mmHg 41%
    19:00 +17°C° 0 mm 6 mps 765 mmHg 45%
    20:00 +15°C° 0 mm 6 mps 765 mmHg 49%
    21:00 +14°C° 0 mm 6 mps 766 mmHg 51%
    22:00 +13°C° 0 mm 6 mps 766 mmHg 52%
    23:00 +11°C° 0 mm 6 mps 766 mmHg 54%

    28 November, Tuesday

    Time Temperature Precipitation Wind Pressure Humidity
    00:00 +10°C° 0 mm 5 mps 766 mmHg 56%
    01:00 +9°C° 0 mm 5 mps 766 mmHg 57%
    02:00 +8°C° 0 mm 4 mps 766 mmHg 59%
    03:00 +7°C° 0 mm 4 mps 766 mmHg 61%
    04:00 +8°C° 0 mm 3 mps 767 mmHg 64%
    05:00 +8°C° 0 mm 3 mps 767 mmHg 66%
    06:00 +10°C° 0 mm 3 mps 767 mmHg 59%
    07:00 +12°C° 0 mm 3 mps 767 mmHg 51%
    08:00 +15°C° 0 mm 2 mps 767 mmHg 44%
    09:00 +17°C° 0 mm 2 mps 767 mmHg 39%
    10:00 +19°C° 0 mm 2 mps 767 mmHg 33%
    11:00 +21°C° 0 mm 2 mps 766 mmHg 28%
    12:00 +21°C° 0 mm 2 mps 766 mmHg 27%
    13:00 +23°C° 0 mm 2 mps 765 mmHg 27%
    14:00 +24°C° 0 mm 3 mps 764 mmHg 26%
    15:00 +22°C° 0 mm 3 mps 764 mmHg 29%
    16:00 +22°C° 0 mm 4 mps 764 mmHg 33%
    17:00 +21°C° 0 mm 4 mps 763 mmHg 36%
    18:00 +19°C° 0 mm 4 mps 763 mmHg 44%
    19:00 +17°C° 0 mm 4 mps 764 mmHg 53%
    20:00 +14°C° 0 mm 5 mps 764 mmHg 62%
    21:00 +14°C° 0 mm 4 mps 764 mmHg 64%
    22:00 +14°C° 0 mm 4 mps 764 mmHg 65%
    23:00 +13°C° 0 mm 4 mps 764 mmHg 66%

    29 November, Wednesday

    Time Temperature Precipitation Wind Pressure Humidity
    00:00 +13°C° 0 mm 4 mps 763 mmHg 68%
    01:00 +12°C° 0 mm 3 mps 763 mmHg 70%
    02:00 +12°C° 0 mm 3 mps 763 mmHg 71%
    03:00 +12°C° 0 mm 3 mps 763 mmHg 72%
    04:00 +11°C° 0 mm 3 mps 763 mmHg 73%
    05:00 +12°C° 0 mm 2 mps 763 mmHg 73%
    06:00 +14°C° 0 mm 2 mps 763 mmHg 64%
    07:00 +16°C° 0 mm 2 mps 763 mmHg 55%
    08:00 +19°C° 0 mm 2 mps 763 mmHg 46%
    09:00 +20°C° 0 mm 2 mps 762 mmHg 40%
    10:00 +23°C° 0 mm 2 mps 762 mmHg 35%
    11:00 +25°C° 0 mm 2 mps 761 mmHg 30%
    12:00 +25°C° 0 mm 3 mps 761 mmHg 28%
    13:00 +26°C° 0 mm 3 mps 760 mmHg 27%
    14:00 +26°C° 0 mm 4 mps 760 mmHg 26%
    15:00 +26°C° 0 mm 4 mps 759 mmHg 27%
    16:00 +25°C° 0 mm 5 mps 759 mmHg 29%
    17:00 +23°C° 0 mm 5 mps 759 mmHg 31%
    18:00 +21°C° 0 mm 5 mps 759 mmHg 37%
    19:00 +19°C° 0 mm 5 mps 760 mmHg 43%
    20:00 +17°C° 0 mm 4 mps 760 mmHg 49%
    21:00 +17°C° 0 mm 4 mps 760 mmHg 52%
    22:00 +15°C° 0 mm 4 mps 760 mmHg 55%
    23:00 +15°C° 0 mm 4 mps 760 mmHg 58%

    30 November, Thursday

    Time Temperature Precipitation Wind Pressure Humidity
    00:00 +14°C° 0 mm 4 mps 760 mmHg 60%
    01:00 +14°C° 0 mm 3 mps 760 mmHg 62%
    02:00 +13°C° 0 mm 3 mps 759 mmHg 64%
    03:00 +13°C° 0 mm 3 mps 760 mmHg 65%
    04:00 +13°C° 0 mm 3 mps 760 mmHg 66%
    05:00 +13°C° 0 mm 2 mps 760 mmHg 66%
    06:00 +16°C° 0 mm 2 mps 760 mmHg 58%
    07:00 +18°C° 0 mm 2 mps 760 mmHg 49%
    08:00 +20°C° 0 mm 2 mps 760 mmHg 40%
    09:00 +23°C° 0 mm 2 mps 760 mmHg 34%
    10:00 +25°C° 0 mm 2 mps 760 mmHg 29%
    11:00 +27°C° 0 mm 2 mps 759 mmHg 23%
    12:00 +28°C° 0 mm 3 mps 759 mmHg 22%
    13:00 +28°C° 0 mm 3 mps 758 mmHg 21%
    14:00 +29°C° 0 mm 4 mps 758 mmHg 20%
    15:00 +28°C° 0 mm 4 mps 758 mmHg 22%
    16:00 +27°C° 0 mm 5 mps 758 mmHg 24%
    17:00 +27°C° 0 mm 5 mps 757 mmHg 25%
    18:00 +25°C° 0 mm 5 mps 758 mmHg 34%
    19:00 +21°C° 0 mm 4 mps 758 mmHg 42%
    20:00 +19°C° 0 mm 4 mps 758 mmHg 50%
    21:00 +19°C° 0 mm 4 mps 758 mmHg 54%
    22:00 +18°C° 0 mm 4 mps 758 mmHg 59%
    23:00 +18°C° 0 mm 4 mps 758 mmHg 64%
    Show more